sat.trackr.live / text

‹ back to catalog

ONEWEB-0306

NORAD 49188 · 2021-083C

PAYLOAD ACTIVE UNKNOWN

§ Identity

Operator
Country
UK
Launch date
2021-09-14
Launch site
TYMSC
Launch vehicle
Mass (kg)
RCS (m²)

Purposes: comms

External: N2YO · Heavens-Above · Gunter

§ Orbital elements

Epoch: 2026-09-19T01:50:57.537312Z

Period
109.20 min
Inclination
87.9167°
Eccentricity
0.0001717
Mean motion
13.18684342 rev/d
Perigee alt
1,188.5 km
Apogee alt
1,191.0 km
Semi-major
7,567.9 km
B*
-6.7410e-5
RAAN
316.7936°
Arg perigee
92.8552°
Mean anomaly
267.2777°
Rev number
24,239

§ Raw data

ONEWEB-03061 49188U 21083C   26262.07705483 -.00000014  00000+0 -67410-4 0  99942 49188  87.9167 316.7936 0001717  92.8552 267.2777 13.18684342242390

JSON: /api/v1/satellites/49188 · /tle

For live sub-satellite position, see the globe view (requires WebGL).

§ Visibility from observer

Set your observer location to see the next 7 days of passes ≥ 10°. The values pass through the URL so the page stays shareable.

No JS? Fill the form by hand. The geolocation button needs JavaScript.